AirNav   ProFlight Series 2 Aviation Headset
 
 1031 users online  

KPYG Pageland Airport
Pageland, South Carolina, USA

GOING TO PAGELAND?


FAA INFORMATION EFFECTIVE 18 JUNE 2020

Location

FAA Identifier: PYG
Lat/Long: 34-44-31.7000N 080-20-42.7000W
34-44.528333N 080-20.711667W
34.7421389,-80.3451944
(estimated)
Elevation: 574.9 ft. / 175.2 m (surveyed)
Variation: 08W (2020)
From city: 3 miles SE of PAGELAND, SC
Time zone: UTC -4 (UTC -5 during Standard Time)
Zip code: 29728

Airport Operations

Airport use: Open to the public
Control tower: no
ARTCC: ATLANTA CENTER
FSS: ANDERSON FLIGHT SERVICE STATION
NOTAMs facility: AND (NOTAM-D service available)
Attendance: UNATNDD
Wind indicator: lighted
Segmented circle: yes
Lights: ACTVT PAPI RWY 6 & 24 - CTAF.
Beacon: white-green (lighted land airport)
Operates sunset to sunrise.

Airport Communications

CTAF: 122.9
CHARLOTTE APPROACH: 120.05
CHARLOTTE DEPARTURE: 120.05
WX AWOS-3 at CQW (19 nm E): 124.825 (843-537-3301)

Nearby radio navigation aids

VOR radial/distance  VOR name  Freq  Var
CTFr331/6.5CHESTERFIELD VOR/DME108.2003W

 
NDB name  Hdg/Dist  Freq  Var  ID
HARTSVILLE338/23.034107WHVS .... ...- ...
LANCASTER094/25.440007WLKR .-.. -.- .-.
DARLINGTON314/28.924506WUDG ..- -.. --.
BENNETTSVILLE292/31.123008WBES -... . ...

Airport Services

Fuel available: 100LL
SELF SVC FUEL AVBL 24 HRS.
Parking: tiedowns
Airframe service: NONE
Powerplant service: NONE
Bottled oxygen: NONE
Bulk oxygen: NONE

Runway Information

Runway 6/24

Dimensions: 3396 x 60 ft. / 1035 x 18 m
Surface: asphalt, in good condition
Weight bearing capacity: 
Single wheel: 12.5
Runway edge lights: medium intensity
RUNWAY 6  RUNWAY 24
Latitude: 34-44.349642N34-44.706580N
Longitude: 080-20.972250W080-20.449893W
Elevation: 549.9 ft.574.9 ft.
Traffic pattern: leftleft
Runway heading: 058 magnetic, 050 true238 magnetic, 230 true
Markings: nonprecision, in good conditionnonprecision, in good condition
Visual slope indicator: 2-light PAPI on left (3.00 degrees glide path)2-light PAPI on left (3.00 degrees glide path)
Runway end identifier lights: yesyes
Touchdown point: yes, no lightsyes, no lights

Airport Ownership and Management from official FAA records

Ownership: Publicly-owned
Owner: TOWN OF PAGELAND
126 N PEARL ST
PAGELAND, SC 29728-1951
Phone 843-672-7292
Manager: CECIL KIMREY
126 N PEARL ST, 126 N PEARL ST
PAGELAND, SC 29728-1951
Phone 843-672-7292

Airport Operational Statistics

Aircraft based on the field: 11
Single engine airplanes: 10
Multi engine airplanes: 1
    
Aircraft operations: avg 44/week *
57% local general aviation
43% transient general aviation
* for 12-month period ending 29 May 2019

Additional Remarks

A50-24 31 FT POWER POLE 182 FT FROM RWY END, 188 FT R OF CNTRLN.
FOR CD CTC CHARLOTTE APCH AT 704-359-0241.

Instrument Procedures

NOTE: All procedures below are presented as PDF files. If you need a reader for these files, you should download the free Adobe Reader.

NOT FOR NAVIGATION. Please procure official charts for flight.
FAA instrument procedures published for use from 18 June 2020 at 0901Z to 16 July 2020 at 0900Z.

 
IAPs - Instrument Approach Procedures
RNAV (GPS) RWY 06   download (211KB)
RNAV (GPS) RWY 24   download (207KB)
NOTE: Special Take-Off Minimums/Departure Procedures apply   download (141KB)

Other nearby airports with instrument procedures:

KCQW - Cheraw Municipal Airport/Lynch Bellinger Field (19 nm E)
N52 - JAARS-Townsend Airport (21 nm W)
KAFP - Anson County Airport - Jeff Cloud Field (21 nm NE)
KEQY - Charlotte-Monroe Executive Airport (21 nm NW)
KHVS - Hartsville Regional Airport (23 nm SE)
 
Loc | Ops | Rwys | IFR | FBO | Links
Com | Nav | Svcs | Stats | Notes
Area around KPYG (Pageland Airport)
 
Road maps at: MapQuest Bing Google
 
Aerial photo
WARNING: Photo may not be current or correct
Aerial photo of KPYG (Pageland Airport)
Do you have a better or more recent aerial photo of Pageland Airport that you would like to share? If so, please send us your photo.

 
Sectional chart

 
Airport distance calculator
Flying to Pageland Airport? Find the distance to fly.

From to KPYG

Sunrise and sunset
Times for 14-Jul-2020
 Local
(UTC-4)
 Zulu
(UTC)
Morning civil twilight05:5109:51
Sunrise06:2010:20
Sunset20:3400:34
Evening civil twilight21:0301:03

Current date and time
Zulu (UTC)  14-Jul-2020 23:08:22
Local (UTC-4)  14-Jul-2020 19:08:22
 
METAR
KCQW 
19nm E 
142255Z AUTO 00000KT 10SM CLR 33/22 A2998 RMK AO2
KEQY 
21nm NW 
142253Z AUTO 00000KT 10SM FEW070 32/22 A2999 RMK AO2 SLP152 T03170217
KAFP 
21nm NE 
142255Z AUTO 00000KT 10SM SCT090 33/19 A2999 RMK AO2 T03320190
KHVS 
23nm SE 
142255Z AUTO 00000KT 10SM BKN090 31/25 A2999 RMK AO2
KLKR 
25nm W 
142255Z AUTO 00000KT 10SM CLR 32/22 A3000 RMK AO2
KUDG 
29nm SE 
141856Z AUTO VRB03KT 10SM CLR 33/23 A2998 RMK AO2 SLP153 T03280228 PNO $
KCDN 
30nm S 
142255Z AUTO 00000KT 10SM CLR 33/22 A2999 RMK AO2
KRCZ 
30nm E 
142255Z AUTO 07004KT 10SM CLR 31/17 A2999 RMK AO2 T03120173
KBBP 
31nm E 
142255Z AUTO 21004KT 10SM CLR 33/23 A2998 RMK AO2
KUZA 
38nm NW 
142254Z AUTO 23006KT 10SM CLR 32/22 A3001 RMK AO2 SLP146 T03220222
TAF
KCLT 
41nm NW 
142151Z 1422/1524 11003KT P6SM VCSH SCT060 FM150000 10003KT P6SM FEW250 FM150900 07003KT P6SM FEW250 FM151400 14005KT P6SM FEW060 FEW250
KFLO 
45nm SE 
141720Z 1418/1518 09006KT P6SM SCT045
KSSC 
47nm S 
141500Z 1415/1521 05006KT 9999 SCT050 QNH2998INS BECMG 1418/1419 VRB06KT 9999 VCSH SCT060 QNH2995INS BECMG 1423/1424 VRB06KT 9999 NSW SCT040 QNH2997INS BECMG 1511/1512 11005KT 9999 FEW060 QNH3004INS TX34/1420Z TN23/1510Z
NOTAMs
Click for the latest NOTAMs
NOTAMs are issued by the DoD/FAA and will open in a separate window not controlled by AirNav.

 

 
 

FBO, Fuel Providers, and Aircraft Ground Support

  
 Business Name 
 
 Contact 
 
 Services / Description 
 
Fuel Prices
 
Comments
  
Town of Pageland (self-serve fuel) 843-672-7292
no information available

If you are affiliated with Town of Pageland (self-serve fuel) and would like to show here your services, contact info, web link, logo, and more, click here
100LL
SS $4.70 
 Updated 29-Jun-2020
 
   write
SS=Self service
Update Fuel Prices
 

Would you like to see your business listed on this page?

 If your business provides an interesting product or service to pilots, flight crews, aircraft, or users of the Pageland Airport, you should consider listing it here.  To start the listing process, click on the button below
 
Add a business
 

Other Pages about Pageland Airport

Update a link
 
Copyright © AirNav, LLC. All rights reserved. Privacy Policy  Contact